Location: Centrum přírodních věd - Hvězdárna Jičín
(50.4344°N, 15.3406°E)
Time: 23:52:42
(UTC+01:00)

ISS - Visible Passes

Search period start: 18 December 2018 00:00
Search period end: 28 December 2018 00:00
Orbit: 401 x 408 km, 51.6° (Epoch: 19 December)

Date Brightness Start Highest point End Pass type
(mag) Time Alt. Az. Time Alt. Az. Time Alt. Az.
22 Dec -0.5 07:06:01 10° S 07:07:49 14° SE 07:09:36 10° ESE visible
24 Dec -1.4 06:56:46 10° SSW 06:59:32 25° SE 07:02:18 10° E visible
25 Dec -0.8 06:05:20 10° S 06:07:29 16° SE 06:09:40 10° E visible
26 Dec -0.4 05:15:17 10° SE 05:15:30 10° SE 05:15:44 10° SE visible
26 Dec -2.6 06:48:10 10° SW 06:51:20 44° SSE 06:54:29 10° E visible
27 Dec -2.0 05:56:44 13° SSW 05:59:11 29° SSE 06:02:06 10° E visible
